Regional Weather Roundup
Issued by NWS

Home | Current Version | Previous Version | Graphics & Text | Print | Product List | Glossary Off
Versions: 1 2 3 4 5 6 7 8 9 10 11 12 13 14 15 16 17 18 19 20 21 22 23 24 25 26 27 28 29 30 31 32 33 34 35 36 37 38 39 40 41 42 43 44 45 46 47 48 49 50

742
ASUS43 KMKX 242100
RWRWI

WISCONSIN REGIONAL WEATHER ROUNDUP
NATIONAL WEATHER SERVICE MILWAUKEE/SULLIVAN WI
300 PM CST FRI FEB 24 2017

NOTE: "FAIR" INDICATES FEW OR NO CLOUDS BELOW 12,000 FEET WITH NO
SIGNIFICANT WEATHER AND/OR OBSTRUCTIONS TO VISIBILITY.

WIZ001-002-006>008-014>016-023>028-242200-
NORTHWEST WISCONSIN

CITY           SKY/WX    TMP DP  RH WIND       PRES   REMARKS
SUPERIOR ARPT  MOSUNNY   24  10  56 NE12G17   29.90F WCI  13
ASHLAND        CLOUDY    19  14  81 N17G25    29.87F HAZE    WCI   4
HAYWARD        LGT SNOW  20  14  77 NE17      29.81R WCI   5
SIREN          CLOUDY    23  14  68 NE18G26   29.83S WCI   9
CUMBERLAND     CLOUDY    23  12  63 N18       29.77S WCI   9
RICE LAKE      LGT SNOW  23  17  79 N17       29.78S WCI   9
CHETEK         LGT SNOW  23  18  80 N10G24    29.76S WCI  12
LADYSMITH      LGT SNOW  25  19  80 N14G26    29.73F WCI  13
EAU CLAIRE     LGT SNOW  24  19  81 N14G25    29.72S WCI  12
MENOMONIE      LGT SNOW  25  20  80 N15       29.75R WCI  13
NEW RICHMOND   CLOUDY    26  17  66 N17       29.79S WCI  13
OSCEOLA        CLOUDY    25  15  66 N16G26    29.84S WCI  13
$$

WIZ003>005-009-010-017-018-242200-
NORTH CENTRAL WISCONSIN

CITY           SKY/WX    TMP DP  RH WIND       PRES   REMARKS
MANITOWISH WTR LGT SNOW  19  16  89 N9G17     29.71F WCI   8
ARBOR VITAE    LGT SNOW  22  17  83 N14G23      N/A  WCI   9
WOODRUFF       LGT SNOW  22  17  83 N14G23      N/A  WCI   9
RHINELANDER    MIX PCPN  21  14  74 N13G24    29.65F WCI   9
EAGLE RIVER    FLURRIES  20  13  74 NE18      29.68S WCI   4
LAND O LAKES   LGT SNOW  19  14  80 N15G22    29.71F WCI   5
PHILLIPS       LGT SNOW  21  16  83 N16G25    29.69F WCI   7
TOMAHAWK       CLOUDY    22  16  78 N13G18    29.67S WCI  10
MEDFORD        CLOUDY    23  17  77 N16G24    29.64S WCI   9
MERRILL        NOT AVBL
$$

WIZ029-030-035-036-043>047-242200-
CENTRAL WISCONSIN

CITY           SKY/WX    TMP DP  RH WIND       PRES   REMARKS
WAUSAU         FLURRIES  24  18  77 N14G24    29.62S WCI  12
MOSINEE        LGT SNOW  25  21  86 N15G21    29.63F WCI  12
MARSHFIELD     FLURRIES  26  18  71 N10G22    29.63R WCI  16
STEVENS POINT  CLOUDY    23  22  93 N12       29.62S FOG     WCI  12
WAUPACA        CLOUDY    29  25  85 N8G17     29.61S FOG     WCI  21
WAUTOMA        CLOUDY    27  24  89 N13       29.61R WCI  16
WISC RAPIDS    CLOUDY    26  23  88 NE12      29.63S FOG     WCI  16
CAMP DOUGLAS   NOT AVBL
$$

WIZ011>013-019>022-031-037>040-048>050-242200-
NORTHEAST WISCONSIN

CITY           SKY/WX    TMP DP  RH WIND       PRES   REMARKS
ANTIGO         CLOUDY    22  18  86 N17G26    29.62F FOG     WCI   7
SHAWANO        CLOUDY    28  25  87 N16G25    29.62S FOG     WCI  16
OCONTO         CLOUDY    27  25  91 N13G21    29.60F WCI  16
STURGEON BAY   MIX PCPN  28  27  96 N22       29.58F FOG     WCI  14
GREEN BAY      LGT SNOW  29  27  92 N20       29.58S FOG     WCI  16
MANITOWOC      NOT AVBL
APPLETON       CLOUDY    27  27 100 N21G28    29.55F FOG     WCI  13
CLINTONVILLE   MIX PCPN  27  23  86 N16       29.61F WCI  14
OSHKOSH        CLOUDY    28  25  88 N21       29.56S FOG     WCI  15
$$

WIZ032>034-041-042-053>061-242200-
SOUTHWEST WISCONSIN

CITY           SKY/WX    TMP DP  RH WIND       PRES   REMARKS
LA CROSSE      MIX PCPN  30  23  75 N14       29.67R WCI  19
SPARTA         LGT SNOW  27  24  87 N14G23    29.66R WCI  16
VIROQUA        CLOUDY    27  26  94 N13       29.60S WCI  17
BOSCOBEL       CLOUDY    31  27  85 N8G17     29.61S FOG     WCI  23
PRAIRIE DU CHI CLOUDY    31  28  91 N6        29.61S FOG     WCI  25
PLATTEVILLE    CLOUDY    31  31 100 N10       29.56R WCI  22
$$

WIZ056-057-062-063-064-067-068-242200-
SOUTH CENTRAL WISCONSIN

CITY           SKY/WX    TMP DP  RH WIND       PRES   REMARKS
REEDSBURG      CLOUDY    27  27  98 N9        29.59R FOG     WCI  18
BARABOO/DELLS  CLOUDY    28  26  93 N9        29.58R FOG     WCI  19
LONE ROCK      CLOUDY    30  26  85 NE12      29.59S FOG     WCI  20
MINERAL POINT  LGT SNOW  32  32 100 N5        29.55R WCI  27
MADISON        FRZ DRZL  29  26  89 N20G26    29.56R FOG     WCI  16
MIDDLETON      CLOUDY    31  30  96 N7        29.56R WCI  24
WATERTOWN      CLOUDY    30  30 100 N14G21    29.51F FOG     WCI  19
MONROE         CLOUDY    32  30  93 N17       29.51R FOG     WCI  21
JANESVILLE     CLOUDY    36  36 100 NE13G18   29.50R FOG     WCI  27
$$

WIZ051-052-058>065-066-070>072-242200-
SOUTHEAST WISCONSIN

CITY           SKY/WX    TMP DP  RH WIND       PRES   REMARKS
MILWAUKEE      LGT RAIN  36  33  89 N15       29.48S FOG     WCI  27
WAUKESHA       CLOUDY    32  30  93 N12G18    29.51R FOG     WCI  23
MILWAUKEE/TIMM LGT RAIN  34  30  86 N15       29.50S WCI  24
RACINE         MIX PCPN  36  34  92 N18G24    29.49R FOG     WCI  26
KENOSHA        CLOUDY    36  34  92 N9        29.48R FOG     WCI  29
FOND DU LAC    LGT SNOW  29  25  85 N22       29.56R FOG     WCI  15
SHEBOYGAN      FRZ RAIN  32  30  92 N14G26    29.51S FOG     WCI  22
WEST BEND      LGT RAIN  32  32 100 N5        29.51S WCI  27
JUNEAU         CLOUDY    28  27  95 N9        29.54F FOG     WCI  19
$$

LSZ147-162-242200-
LAKE SUPERIOR

STATION/POSITION TIME  TEMP    WIND        PRES    WAVE
                       AIR SEA DIR/SP/G            HT/PER
                 (UTC) (F)     (DEG/KT/KT) (MB)    (FT/S)
DEVILS ISLAND    2000   18      20/ 15/ 17 1014.3F
PORT WING        2040   22      50/ 13/ 19 1012.9S
SAXON HARBOR     2040   22      20/ 22/ 26 1010.8F
$$

LMZ867-665-643>646-242200-
LAKE MICHIGAN

STATION/POSITION TIME  TEMP    WIND        PRES    WAVE
                       AIR SEA DIR/SP/G            HT/PER
                 (UTC) (F)     (DEG/KT/KT) (MB)    (FT/S)
CHAMBERS ISLAND  1840   28     360/ 21/ 32 1003.7F
NORTHPORT PIER   2040   28      10/  6/  7 1003.4F
SISTER BAY       1950   29      30/ 13/ 22   N/A
KEWAUNEE LAKESHO 2030   29      10/ 12/ 17 1000.7F
SHEBOYGAN LAKESH 2000   33      20/ 27/ 31  999.6F
PORT WASHINGTON  2040   34      20/  9/ 14 1000.3S
MILWAUKEE LAKESH 2030   35      10/ 19/ 22   N/A
KENOSHA   LAKESH 2000   36     360/ 18/ 23  998.0
$$

TC  - TEMPERATURE IN CELSIUS
VSB - VISIBILITY IN STATUTE MILES
WCI - WIND CHILL INDEX
HX  - HEAT INDEX





USA.gov is the U.S. government's official web portal to all federal, state and local government web resources and services.